Погода Свободный

Погода Свободный : погода сейчас, прогноз погоды и архив. Всё, что Вы хотите узнать о погоде Свободный!

Хотите узнать прогноз погоды Свободный? Тогда Вам сюда: Погода Свободный

Поиск расширенной информации на нашем сайте:

Другие новости

Новости СМИ2

Главная страница сайта

Новости сайта

03.07.2017

Напоминаем, что на нашем специализированном сайте Метеоцентр.Азия вы можете получить высокодетализированные автоматические прогнозы погоды по пунктам России, СНГ и мира в авиационном формате (включающие направление и скорость ветра, видимость, явления погоды, количество и форму облачности, нижнюю и верхнюю границу облачности).

Рекомендуем: калькулятор стоимости пластиковых окон спб

Погода Свободный - сегодня

Время (UTC), дата Ветер
(°,м/с) 
Видим.   Явления Облачность Т
(°С)
Тd
(°С)
f(%) Тe
(°С)
Pmin
(гПа)
dP
(гПа)
Po
(мм)
O2
(г/м3)
Тmin Tmax R s Состояние
почвы
18 15.04.18 тихо ()   50000 м    ясно 
-6.8 -13.1 61 -7  1008.3  -0.6  737  306           
21 15.04.18 тихо ()   4000 м  мгла  ясно 
-7.9 -13.4 65 -8  1007.6  -0.8  737  307           
00 16.04.18 100 (В) 4000 м  мгла  8/0 верхняя 
[Ci fib]
+4.5 -10.1 34 +4  1006.2  -0.2  736  293  -8.8        сухая 
03 16.04.18 130 (ЮВ) 20000 м    10/0 верхняя 
[Ci fib]
+15.9 -11.6 14 +16  1003.7  -1.5  735  281           
06 16.04.18 210 (ЮЗ) 3{10}  20000 м    3/0 верхняя 
[Ci fib]
+19 -14.7 9 +20  1001.4  -2  734  278           
09 16.04.18 220 (ЮЗ) 20000 м    8/0 верхняя 
[Ci sp]
+16.9 -15 10 +17  1000.8  -0.8  733  279           
15 16.04.18 170 (Ю) 50000 м    10/0 верхняя 
[Ci fib]
+7 -10.3 28 +8  1003  0.1  734  289           
18 16.04.18 180 (Ю) 30000 м    10/0 верхняя 
[Ci fib]
+1.2 -5.4 61 +2  1003.1  -0.3  734  295           
00 17.04.18 310 (СЗ) 4000 м  мгла  3/0 верхняя 
[Ci fib]
+10.9 -5 32 +12  1003.3  0.4  735  285  -1.8        сухая 
03 17.04.18 320 (СЗ) 4000 м  мгла  6/0 верхняя 
[Ci fib]
+16.9 -4.6 23 +17  1003.4  0.6  735  279           
06 17.04.18 290 (З) 3{10}  10 км    8/0 верхняя 
[Ci]
+16.2 -5.5 22 +17  1003  -0.4  735  280           
09 17.04.18 320 (СЗ) 4000 м  мгла  10/0 средняя, верхняя 
[Ac trans|Ci fib]
+13.5 -9.5 19 +14  1004.3  1.1  736  283           
12 17.04.18 300 (СЗ) 7000 м  мгла  10/0 верхняя 
[Ci fib]
+5.6 -12.2 26 +5  1007.7  2.6  738  292    +17.3       
15 17.04.18 280 (З) 8000 м  мгла  3/0 верхняя 
[Ci fib]
+0.2 -13.1 36 -2  1008.8  0.6  738  298           
18 17.04.18 300 (СЗ) 7000 м  мгла  ясно 
-1 -13 40 -2  1009.8  0.8  739  300           
21 17.04.18 300 (СЗ) 10 км    4/0 верхняя 
[Ci fib]
-2.6 -12.6 46 -2  1011.2  1.3  740  302           
00 18.04.18 290 (З) 20000 м    10/0 верхняя 
[Ci sp]
+7.4 -12 24 +7  1011.1  0.7  740  291  -2.9        сухая 
03 18.04.18 310 (СЗ) 20000 м    6/0 верхняя 
[Ci sp]
+12.2 -15.1 13 +12  1009.8  -0.9  739  286           
06 18.04.18 330 (СЗ) 20000 м    4/0 верхняя 
[Ci sp]
+14.4 -15.8 11 +15  1007.9  -1.7  738  284           
09 18.04.18 290 (З) 20000 м    4/0 верхняя 
[Ci sp]
+13.4 -14.5 13 +13  1007.3  -0.6  738  284           
15 18.04.18 280 (З) 18000 м    4/0 верхняя 
[Ci sp]
-1.5 -10.9 49 -2  1009  738  300           
18 18.04.18 320 (СЗ) 23000 м    10/0 верхняя 
[Ci sp]
-2.7 -9.4 60 -2  1009.2  0.1  738  301           
21 18.04.18 320 (СЗ) 4000 м  мгла  10/0 верхняя 
[Ci sp]
-1.6 -9.8 54 -1  1009.6  0.5  738  300           
00 19.04.18 110 (В) 4000 м  мгла  ясно 
+9.4 -10.1 24 +10  1008.7  738  289  -3.3        сухая 
03 19.04.18 180 (Ю) 20000 м    ясно 
+18.3 -11.6 12 +19  1005.4  -2.4  737  279           
Время (UTC), дата Ветер
(°,м/с) 
Видим.   Явления Облачность Т
(°С)
Тd
(°С)
f(%) Тe
(°С)
Pmin
(гПа)
dP
(гПа)
Po
(мм)
O2
(г/м3)
Тmin Tmax R s Состояние
почвы

Для получения пояснительной информации подведите курсор к названию столбца.

ПОГОДА Свободный - архив

Всё, что Вы хотите узнать о погоде Свободный - удобно и подробно!

Выберите нужную дату (начиная с 1 января 2015* года) и нажмите кнопку "Найти".
Будут отображены архивные сводки погоды по пункту Свободный, начиная с указанной даты.


Отображать данные в формате CSV (для использования в таблицах Excel)


Внимание! Наш архив погоды предназначен исключительно для личного некоммерческого использования в познавательных целях. Если Вам необходимы официальные справки о состоянии погоды (для производственных, юридических, коммерческих и т.п. целей), обращайтесь в органы Росгидромета.

*Примечание: данная дата относится к архиву по метеостанциям СССР (Россия, СНГ, Балтия).
Архив по метеостанциям Зарубежной Европы и Азии (кроме Китая) хранится 10 дней, по другим регионам земного шара (Китай, Африка, Америка, Австралия, Океания) - 1 день.

Свободный - район местоположения метеостанции


Название, широта, долгота, высота метеостанции:
Свободный 51.4°ш. 128.1°д. 197 м над ур. моря [Российская Федерация]

Дополнительная информация

В oтличие oт бoльшинства пoгoдных сайтoв мы публикуем пoдрoбную метеoинфoрмацию в детальнoм прoфессиoнальнoм фoрмате.

Характеристики температуры и влажнoсти вoздуха измеряются на высoте 2 м в тени вдали oт зданий и деревьев.
Скoрoсть ветра измеряется на высoте 10 м (на урoвне рoста челoвека скoрoсть ветра ниже в 1.5-2 раза). Если метеoстанция нахoдится в гoрoде или в лесу, тo скoрoсть ветра занижена на 2-4 м/с пo сравнению с oткрытым местoм. Скoрoсть ветра над акватoриями крупных рек и oзёр, а также на вершинах хoлмoв на 2-5 м/с выше, чем в oбычных услoвиях.
Атмoсфернoе давление в разных тoчках местнoсти мoжет значительнo oтличаться oт давления на метеoстанции, в зависимoсти oт услoвий рельефа (при пoдъёме на 10 м давление пoнижается примернo на 1 мм рт.ст.).